ANGOSAT 2

Last updated on Wed Sep 09 2026 00:03:03 GMT+0000 (Coordinated Universal Time)

1 54033U 22131A 26251.52092228 .00000000 00000+0 00000+0 0 9998 2 54033 0.0272 147.0548 0000760 131.6694 279.3895 1.00271054 14312
UTC large
Height (km)
Speed (km/s)
/
Latitude / Longitude
Inclination (degrees)
Orbital Period (minutes)
Azimuth
Elevation
Range (km)
Doppler Factor

Next 0 passes for location: London (51.5072 / 0.1276)

No passes found over London.
ANGOSAT 2